[[{"header":{"parameterUnit":"m.s-1","parameterCategory":1,"la1":30.2991,"la2":30.254,"lo1":-89.0895,"lo2":-89.0444,"dy":0.0017,"dx":0.0017,"nx":28,"ny":28,"refTime":"2024-12-31T03:00:00:Z","depth":0,"parameterNumber":2,"parameterNumberName":"U-component_of_WINDS"},"data":[0,0,0,0,0,0,0,0,0,0,0,0,0,0,0,0,0,0,0,0,0,0,0,0,0,0,0,0,0,0,0,0,0,0,0,0,0,0,0,0,0,0,0,0,0,0,0,0,0,0,0,0,0,0,0,0,0,0,-0.8596,-0.8595,0,-0.8564,-0.8563,-0.8563,-0.8518,-0.8517,-0.8516,-0.8516,-0.8483,-0.8483,-0.8483,0,0,0,0,0,0,0,0,0,0,0,0,0,-0.8618,-0.8618,-0.8596,-0.8595,-0.8595,-0.8564,-0.8563,-0.8563,-0.8518,-0.8517,-0.8516,-0.8515,-0.8483,-0.8483,-0.8483,0,0,0,0,0,0,0,0,0,0,0,0,0,-0.86,-0.8618,-0.8596,-0.8569,-0.8566,-0.8564,-0.8563,-0.8563,-0.8518,-0.8517,-0.8516,-0.8515,-0.8483,-0.8483,-0.8483,-0.8504,0,0,-0.8482,-0.8482,0,0,0,0,0,0,0,0,-0.8601,-0.8599,-0.8573,-0.8571,-0.8568,-0.8544,-0.8559,-0.8543,-0.8519,-0.8537,-0.8516,-0.8514,-0.8504,-0.8502,-0.8499,-0.8503,-0.8501,-0.8482,-0.8482,-0.8482,-0.8482,0,0,0,0,0,0,0,-0.8602,-0.86,-0.8583,-0.8573,-0.857,-0.8558,-0.8555,-0.8556,-0.8527,-0.8535,-0.8532,-0.8528,-0.8502,-0.8499,-0.8497,-0.8501,-0.8482,-0.8482,-0.8482,-0.8481,-0.8521,-0.8522,0,0,0,0,0,0,-0.8608,-0.8602,-0.8584,-0.8582,-0.8582,-0.8559,-0.8555,-0.8553,-0.8527,-0.8522,-0.8529,-0.8526,-0.85,-0.8498,-0.8496,-0.852,-0.8482,-0.8481,-0.8481,-0.852,-0.8521,-0.8522,0,0,0,0,0,0,-0.8608,-0.8606,-0.8585,-0.8591,-0.8587,-0.856,-0.8558,-0.8553,-0.8549,-0.8523,-0.8517,-0.8531,-0.8499,-0.8496,-0.8502,-0.8518,-0.8481,-0.8481,-0.8518,-0.852,-0.8522,-0.8568,0,0,0,0,0,0,-0.8609,-0.8607,-0.8615,-0.8591,-0.8587,-0.8593,-0.8559,-0.8553,-0.8549,-0.8545,-0.8523,-0.8518,-0.8498,-0.8503,-0.8502,-0.8517,-0.8481,-0.8517,-0.8519,-0.8521,-0.8565,-0.8571,-0.8576,0,0,0,0,0,-0.861,-0.8629,-0.8616,-0.8614,-0.8597,-0.8594,-0.8591,-0.8567,-0.855,-0.8558,-0.8541,-0.8519,-0.8516,-0.8504,-0.8503,-0.8518,-0.8516,-0.8518,-0.8521,-0.8562,-0.857,-0.8576,0,0,0,0,0,0,-0.8655,-0.8626,-0.861,-0.8622,-0.8611,-0.8586,-0.8595,-0.8576,-0.8569,-0.8565,-0.8535,-0.8531,-0.8541,-0.853,-0.8516,-0.8537,-0.8513,-0.8515,-0.8544,-0.8551,-0.8557,-0.856,-0.8481,0,0,0,0,0,-0.8667,-0.8667,-0.8641,-0.8654,-0.8649,-0.8623,-0.8621,-0.8603,-0.859,-0.8585,-0.8568,-0.8557,-0.8553,-0.8551,-0.8547,-0.8562,-0.8557,-0.8572,-0.8578,-0.8583,-0.8585,-0.8593,-0.86,-0.8531,-0.8531,-0.8531,0,0,-0.869,-0.8674,-0.8676,-0.8662,-0.8651,-0.8652,-0.8619,-0.8621,-0.8622,-0.8585,-0.859,-0.8578,-0.8562,-0.8573,-0.8577,-0.8565,-0.8603,-0.8586,-0.859,-0.859,-0.8597,-0.8603,-0.8609,-0.8533,-0.8532,-0.8532,0,0,-0.8734,-0.8721,-0.8731,-0.8721,-0.8704,-0.8687,-0.8689,-0.8667,-0.8658,-0.8662,-0.8635,-0.8634,-0.8629,-0.8619,-0.8614,-0.8653,-0.8633,-0.8652,-0.8683,-0.8691,-0.8696,-0.8701,-0.8715,-0.8721,-0.8655,-0.8655,-0.8655,0,-0.8766,-0.8765,-0.8739,-0.8743,-0.8738,-0.8704,-0.8714,-0.8705,-0.8688,-0.8686,-0.8671,-0.8663,-0.8651,-0.8659,-0.8669,-0.8665,-0.8667,-0.8655,-0.8697,-0.8702,-0.8706,-0.8719,-0.8725,-0.8658,-0.8657,-0.8657,-0.8657,0,-0.8805,-0.8806,-0.8815,-0.88,-0.8796,-0.8803,-0.8777,-0.8776,-0.8759,-0.8743,-0.8748,-0.8731,-0.8723,-0.8723,-0.8706,-0.8729,-0.8722,-0.8703,-0.8678,-0.8715,-0.8728,-0.8733,-0.8661,-0.866,-0.866,-0.8659,0,0,-0.8878,-0.8847,-0.8851,-0.8844,-0.8823,-0.8823,-0.8828,-0.8819,-0.8819,-0.8808,-0.8812,-0.8808,-0.879,-0.8784,-0.8765,-0.8772,-0.8805,-0.8752,-0.8751,-0.8763,-0.8831,-0.8846,-0.8852,-0.8791,-0.8792,-0.8793,-0.8832,0,-0.8918,-0.8925,-0.8901,-0.8915,-0.8915,-0.8883,-0.8887,-0.8875,-0.886,-0.8858,-0.8842,-0.884,-0.8816,-0.8812,-0.8817,-0.88,-0.8819,-0.8797,-0.8795,-0.8795,-0.8801,-0.8859,-0.8875,-0.8913,-0.8837,-0.8838,-0.8838,0,-0.8966,-0.8958,-0.8972,-0.895,-0.8949,-0.8954,-0.8944,-0.8942,-0.8928,-0.8917,-0.8909,-0.8888,-0.8891,-0.8866,-0.8871,-0.8857,-0.8855,-0.8846,-0.8847,-0.8847,-0.882,-0.8861,-0.8924,-0.893,-0.8845,-0.8845,-0.8844,0,-0.9018,-0.9011,-0.9018,-0.9012,-0.8987,-0.8991,-0.8981,-0.8965,-0.8962,-0.8953,-0.8951,-0.8942,-0.8938,-0.8933,-0.8909,-0.8893,-0.8917,-0.889,-0.8908,-0.8909,-0.8915,-0.8916,-0.898,-0.8912,-0.8912,-0.8912,-0.8912,0,-0.9067,-0.9076,-0.9041,-0.9046,-0.9056,-0.9028,-0.9038,-0.9025,-0.9011,-0.9013,-0.8984,-0.8986,-0.8954,-0.8953,-0.8934,-0.8942,-0.894,-0.8931,-0.8926,-0.8934,-0.8935,-0.8933,-0.893,-0.8914,-0.8913,-0.8913,-0.8913,0,-0.9127,-0.9104,-0.911,-0.9085,-0.908,-0.9088,-0.9067,-0.9071,-0.9053,-0.9056,-0.9055,-0.9028,-0.9025,-0.9001,-0.8992,-0.8979,-0.8994,-0.8983,-0.8999,-0.8996,-0.9016,-0.9015,-0.9082,-0.909,-0.9016,-0.9017,-0.9017,0,-0.916,-0.9167,-0.9143,-0.9142,-0.9133,-0.9132,-0.9128,-0.91,-0.9097,-0.9081,-0.9087,-0.9081,-0.9075,-0.9071,-0.9051,-0.9044,-0.9034,-0.9058,-0.9033,-0.9041,-0.9035,-0.9036,-0.9037,-0.9064,-0.9065,-0.9066,-0.9066,0,-0.9221,-0.9209,-0.9205,-0.9197,-0.9193,-0.9185,-0.9175,-0.9176,-0.9145,-0.9143,-0.914,-0.9135,-0.9126,-0.9121,-0.911,-0.91,-0.9078,-0.9074,-0.9078,-0.9087,-0.9096,-0.9092,-0.9015,-0.9073,-0.9072,-0.9072,-0.9071,-0.9071,-0.9269,-0.9274,-0.9258,-0.9254,-0.9244,-0.9236,-0.9238,-0.9221,-0.9217,-0.9208,-0.9191,-0.919,-0.9175,-0.9159,-0.915,-0.9148,-0.9136,-0.9141,-0.9143,-0.9145,-0.915,-0.9095,-0.9146,-0.9146,-0.9146,-0.9146,-0.9145,0,-0.933,-0.9318,-0.9314,-0.9302,-0.9299,-0.9278,-0.9266,-0.9265,-0.9264,-0.9252,-0.9247,-0.9243,-0.9237,-0.9217,-0.9209,-0.9212,-0.9202,-0.9211,-0.9211,-0.9209,-0.9161,-0.9159,-0.922,-0.922,-0.922,-0.922,-0.922,-0.922,-0.9361,-0.9368,-0.9354,-0.9356,-0.9343,-0.9342,-0.9337,-0.9329,-0.9319,-0.9316,-0.9312,-0.9298,-0.9282,-0.9273,-0.9268,-0.9262,-0.9261,-0.9274,-0.9265,-0.922,-0.9213,-0.9206,-0.9204,-0.9273,-0.9273,-0.9313,-0.9314,-0.9314]},{"header":{"parameterUnit":"m.s-1","parameterCategory":1,"la1":30.2991,"la2":30.254,"lo1":-89.0895,"lo2":-89.0444,"dy":0.0017,"dx":0.0017,"nx":28,"ny":28,"refTime":"2024-12-31T03:00:00:Z","depth":0,"parameterNumber":3,"parameterNumberName":"V-component_of_WINDS"},"data":[0,0,0,0,0,0,0,0,0,0,0,0,0,0,0,0,0,0,0,0,0,0,0,0,0,0,0,0,0,0,0,0,0,0,0,0,0,0,0,0,0,0,0,0,0,0,0,0,0,0,0,0,0,0,0,0,0,0,-3.4229,-3.4229,0,-3.4238,-3.4238,-3.4238,-3.4215,-3.4215,-3.4214,-3.4213,-3.422,-3.4221,-3.4222,0,0,0,0,0,0,0,0,0,0,0,0,0,-3.4191,-3.4192,-3.4229,-3.4229,-3.4229,-3.4238,-3.4238,-3.4238,-3.4215,-3.4215,-3.4214,-3.4213,-3.422,-3.4221,-3.4222,0,0,0,0,0,0,0,0,0,0,0,0,0,-3.4205,-3.4192,-3.4229,-3.4219,-3.4218,-3.4238,-3.4238,-3.4238,-3.4216,-3.4215,-3.4214,-3.4213,-3.422,-3.4221,-3.4222,-3.4251,0,0,-3.4226,-3.4227,0,0,0,0,0,0,0,0,-3.4204,-3.4206,-3.422,-3.422,-3.4219,-3.4224,-3.4227,-3.4242,-3.4216,-3.4217,-3.4213,-3.4212,-3.4223,-3.4223,-3.4227,-3.4252,-3.4252,-3.4226,-3.4227,-3.4228,-3.4228,0,0,0,0,0,0,0,-3.4203,-3.4205,-3.4232,-3.4221,-3.422,-3.4214,-3.4214,-3.423,-3.4225,-3.4216,-3.4215,-3.4216,-3.4222,-3.4226,-3.4227,-3.4252,-3.4226,-3.4227,-3.4228,-3.4229,-3.4302,-3.4303,0,0,0,0,0,0,-3.4203,-3.4205,-3.4232,-3.4233,-3.4209,-3.4215,-3.4216,-3.4224,-3.4225,-3.4224,-3.4217,-3.4215,-3.4225,-3.4226,-3.4228,-3.4263,-3.4228,-3.4229,-3.423,-3.43,-3.4302,-3.4303,0,0,0,0,0,0,-3.4203,-3.4206,-3.4232,-3.4218,-3.4221,-3.4217,-3.4226,-3.4224,-3.4229,-3.4226,-3.4224,-3.4223,-3.4224,-3.4226,-3.4246,-3.4263,-3.4229,-3.4231,-3.4299,-3.4301,-3.4303,-3.4332,0,0,0,0,0,0,-3.4202,-3.4206,-3.4217,-3.4219,-3.4222,-3.425,-3.4227,-3.4225,-3.4231,-3.4229,-3.423,-3.423,-3.4223,-3.4244,-3.4247,-3.4264,-3.4232,-3.4298,-3.43,-3.4302,-3.433,-3.4335,-3.4339,0,0,0,0,0,-3.4201,-3.4224,-3.4218,-3.4221,-3.4236,-3.4251,-3.4253,-3.4246,-3.4233,-3.4244,-3.4242,-3.423,-3.426,-3.4246,-3.425,-3.4267,-3.4296,-3.4299,-3.4302,-3.4328,-3.4334,-3.4339,0,0,0,0,0,0,-3.4224,-3.4224,-3.4217,-3.4242,-3.4247,-3.4247,-3.4261,-3.4252,-3.426,-3.4257,-3.4247,-3.4248,-3.427,-3.427,-3.4255,-3.4295,-3.4276,-3.4279,-3.4295,-3.43,-3.4305,-3.4305,-3.4233,0,0,0,0,0,-3.4232,-3.4245,-3.4245,-3.4267,-3.427,-3.4265,-3.4272,-3.4266,-3.427,-3.4272,-3.4271,-3.4275,-3.4286,-3.4293,-3.4302,-3.433,-3.433,-3.4343,-3.4348,-3.4351,-3.4355,-3.437,-3.4376,-3.4312,-3.4312,-3.4312,0,0,-3.4249,-3.4251,-3.426,-3.4272,-3.4275,-3.4289,-3.4267,-3.4282,-3.4292,-3.4273,-3.4293,-3.4293,-3.4297,-3.4321,-3.4332,-3.4322,-3.4373,-3.4355,-3.4358,-3.4359,-3.4374,-3.438,-3.4385,-3.4314,-3.4313,-3.4313,0,0,-3.4287,-3.4289,-3.4309,-3.4313,-3.4318,-3.4315,-3.432,-3.4322,-3.4322,-3.4341,-3.4328,-3.4339,-3.4358,-3.4361,-3.4366,-3.4406,-3.4396,-3.441,-3.4434,-3.445,-3.4455,-3.4459,-3.4475,-3.448,-3.4413,-3.4413,-3.4413,0,-3.4307,-3.4328,-3.432,-3.4337,-3.4343,-3.4328,-3.4348,-3.4351,-3.4359,-3.4363,-3.4352,-3.4376,-3.4377,-3.4403,-3.4413,-3.4416,-3.4422,-3.441,-3.4455,-3.4459,-3.4463,-3.4478,-3.4484,-3.4415,-3.4414,-3.4414,-3.4414,0,-3.4353,-3.4368,-3.4383,-3.4392,-3.44,-3.4418,-3.4413,-3.4421,-3.4415,-3.4413,-3.4433,-3.4435,-3.4445,-3.445,-3.4443,-3.4475,-3.4469,-3.4457,-3.4437,-3.4471,-3.4485,-3.4491,-3.4417,-3.4416,-3.4416,-3.4416,0,0,-3.4406,-3.4412,-3.4417,-3.4422,-3.4427,-3.4438,-3.4456,-3.4467,-3.4475,-3.448,-3.4495,-3.4511,-3.45,-3.4505,-3.4499,-3.4512,-3.4546,-3.4498,-3.4498,-3.4508,-3.4582,-3.4592,-3.4599,-3.4538,-3.4539,-3.454,-3.4582,0,-3.4444,-3.4476,-3.447,-3.45,-3.4514,-3.45,-3.4516,-3.452,-3.4519,-3.4531,-3.4529,-3.4541,-3.4525,-3.4528,-3.454,-3.4539,-3.4561,-3.4536,-3.4552,-3.4553,-3.4553,-3.4606,-3.4617,-3.4656,-3.4587,-3.4588,-3.4589,0,-3.4494,-3.4503,-3.4536,-3.454,-3.4545,-3.456,-3.457,-3.458,-3.4586,-3.4584,-3.459,-3.4581,-3.4599,-3.4579,-3.4603,-3.4586,-3.4592,-3.4593,-3.4594,-3.4596,-3.4574,-3.4611,-3.4668,-3.4675,-3.4597,-3.4596,-3.4596,0,-3.4531,-3.4551,-3.4574,-3.4578,-3.4583,-3.4594,-3.4596,-3.46,-3.4608,-3.4616,-3.4621,-3.4631,-3.4636,-3.4644,-3.4638,-3.4624,-3.4664,-3.4643,-3.4663,-3.4664,-3.4673,-3.4673,-3.4734,-3.4675,-3.4675,-3.4675,-3.4675,0,-3.4575,-3.4596,-3.4591,-3.4605,-3.4627,-3.462,-3.4643,-3.4643,-3.4647,-3.4661,-3.4649,-3.4662,-3.4653,-3.4665,-3.466,-3.4682,-3.4684,-3.4683,-3.4682,-3.4685,-3.4685,-3.469,-3.4687,-3.4677,-3.4676,-3.4676,-3.4676,0,-3.4621,-3.4618,-3.4642,-3.4645,-3.4647,-3.4664,-3.4666,-3.4679,-3.4677,-3.4695,-3.4698,-3.4695,-3.4709,-3.4704,-3.4718,-3.4715,-3.4743,-3.4737,-3.4742,-3.4741,-3.4762,-3.476,-3.4829,-3.4838,-3.4772,-3.4773,-3.4773,0,-3.465,-3.4666,-3.4672,-3.468,-3.4684,-3.4698,-3.4706,-3.4699,-3.4708,-3.4716,-3.4728,-3.4741,-3.4751,-3.4774,-3.4772,-3.4783,-3.4779,-3.4802,-3.478,-3.4783,-3.4781,-3.478,-3.4782,-3.4807,-3.4807,-3.4808,-3.4808,0,-3.4702,-3.4701,-3.4713,-3.4725,-3.4736,-3.4744,-3.4752,-3.476,-3.4754,-3.4764,-3.4779,-3.4787,-3.4802,-3.4815,-3.4825,-3.4827,-3.4817,-3.4815,-3.4821,-3.4825,-3.4827,-3.4827,-3.4755,-3.4814,-3.4813,-3.4813,-3.4813,-3.4812,-3.4741,-3.4755,-3.4762,-3.4777,-3.4782,-3.479,-3.4803,-3.4803,-3.4816,-3.4829,-3.4823,-3.4841,-3.4846,-3.4859,-3.4862,-3.4875,-3.4866,-3.4874,-3.4876,-3.4878,-3.4882,-3.4824,-3.4877,-3.4876,-3.4876,-3.4876,-3.4876,0,-3.4794,-3.4798,-3.4812,-3.4824,-3.4836,-3.4826,-3.4834,-3.4844,-3.486,-3.4866,-3.4877,-3.4894,-3.4907,-3.4907,-3.4919,-3.493,-3.4925,-3.4933,-3.4933,-3.4934,-3.4888,-3.4883,-3.4936,-3.4936,-3.4936,-3.4936,-3.4936,-3.4936,-3.4823,-3.4847,-3.4846,-3.4873,-3.4876,-3.4894,-3.49,-3.4907,-3.4912,-3.4932,-3.4944,-3.4944,-3.4948,-3.496,-3.4972,-3.4971,-3.4977,-3.4987,-3.4985,-3.4943,-3.4937,-3.4931,-3.4926,-3.4988,-3.4988,-3.5029,-3.5029,-3.503]}]]